AEN953 LLBG-EDDH

Flight info

Callsign AEN953
Flight time N/A
Altitude 34000
Route SUVAS N128 OTHON UN128 RDS UL609 MES UG18 GIKAS UN133 PEREN UL863 EVIVI L863 OKANA DCT PARAK DCT PATAK DCT LALES DCT HDO M748 RARUP RARUP3D
Aircraft A320/M-SDE3FGHIRWY/LB1

Departure

Time N/A
Airport Ben Gurion International Airport (LLBG)

Arrival

Time 2026-05-01 14:50
Airport Hamburg Helmut Schmidt Airport (EDDH)
Time Latitude Longitude Altitude Speed Heading
2026-05-01 13:01 45.15044 20.86079 36183 ft 434 kts 336°
2026-05-01 13:01 45.18076 20.83831 36298 ft 435 kts 336°
2026-05-01 13:02 45.26112 20.77862 36310 ft 434 kts 336°
2026-05-01 13:07 45.80943 20.36610 36325 ft 433 kts 338°
2026-05-01 13:08 45.86254 20.32572 36326 ft 432 kts 338°
2026-05-01 13:08 45.91564 20.28521 36328 ft 432 kts 338°
2026-05-01 13:09 45.96861 20.24464 36325 ft 431 kts 338°
2026-05-01 13:09 46.02151 20.20414 36329 ft 430 kts 338°
2026-05-01 13:10 46.07432 20.16359 36329 ft 430 kts 338°
2026-05-01 13:10 46.12698 20.12288 36333 ft 429 kts 338°
2026-05-01 13:11 46.18042 20.08614 36328 ft 420 kts 348°
2026-05-01 13:11 46.23580 20.05928 36330 ft 419 kts 348°
2026-05-01 13:12 46.29109 20.03234 36330 ft 419 kts 348°
2026-05-01 13:12 46.34627 20.00530 36332 ft 418 kts 348°
2026-05-01 13:13 46.40074 19.97848 36337 ft 418 kts 348°
2026-05-01 13:13 46.45576 19.95136 36336 ft 417 kts 348°
2026-05-01 13:14 46.51072 19.92425 36321 ft 417 kts 348°
2026-05-01 13:14 46.56557 19.89708 36334 ft 416 kts 348°
2026-05-01 13:15 46.62033 19.86982 36329 ft 416 kts 348°
2026-05-01 13:15 46.67505 19.84261 36327 ft 416 kts 348°
2026-05-01 13:16 46.72983 19.81538 36325 ft 416 kts 348°
2026-05-01 13:16 46.78455 19.78816 36331 ft 415 kts 348°
2026-05-01 13:17 46.89392 19.73335 36331 ft 415 kts 348°
2026-05-01 13:18 46.97585 19.69212 36336 ft 415 kts 348°
2026-05-01 13:18 47.03045 19.66467 36338 ft 415 kts 348°
2026-05-01 13:19 47.08501 19.63713 36334 ft 414 kts 348°
2026-05-01 13:20 47.16671 19.59572 36330 ft 414 kts 347°
2026-05-01 13:20 47.22113 19.56800 36334 ft 413 kts 347°
2026-05-01 13:21 47.30256 19.52670 36328 ft 413 kts 347°
2026-05-01 13:21 47.35680 19.49904 36324 ft 412 kts 347°
2026-05-01 13:22 47.41103 19.47124 36327 ft 412 kts 347°
2026-05-01 13:22 47.46528 19.44343 36335 ft 412 kts 347°
2026-05-01 13:23 47.51034 19.42022 36333 ft 412 kts 347°
2026-05-01 13:23 47.56447 19.39236 36326 ft 412 kts 347°
2026-05-01 13:24 47.61865 19.36447 36327 ft 412 kts 347°
2026-05-01 13:25 47.69976 19.32263 36323 ft 411 kts 347°
2026-05-01 13:25 47.75380 19.29459 36319 ft 411 kts 347°
2026-05-01 13:26 47.80786 19.26643 36317 ft 412 kts 347°
2026-05-01 13:26 47.86193 19.23816 36315 ft 412 kts 347°
2026-05-01 13:27 47.91603 19.20988 36315 ft 412 kts 347°
2026-05-01 13:27 47.99709 19.16738 36317 ft 412 kts 347°
2026-05-01 13:28 48.07576 19.11442 36315 ft 426 kts 329°
2026-05-01 13:29 48.11776 19.04976 36307 ft 438 kts 318°
2026-05-01 13:29 48.15734 18.98034 36306 ft 438 kts 318°
2026-05-01 13:31 48.27597 18.77173 36312 ft 439 kts 318°
2026-05-01 13:32 48.37462 18.59690 36318 ft 439 kts 317°
2026-05-01 13:33 48.47299 18.42138 36318 ft 439 kts 317°
2026-05-01 13:34 48.55166 18.28004 36311 ft 440 kts 317°
2026-05-01 13:35 48.61059 18.17376 36308 ft 440 kts 317°
2026-05-01 13:36 48.66970 18.06705 36318 ft 441 kts 316°
2026-05-01 13:36 48.72852 17.96008 36324 ft 441 kts 316°
2026-05-01 13:37 48.76779 17.88849 36327 ft 441 kts 316°
2026-05-01 13:37 48.80686 17.81697 36332 ft 440 kts 316°
2026-05-01 13:38 48.86551 17.70967 36336 ft 438 kts 319°
2026-05-01 13:39 48.90822 17.64446 36339 ft 435 kts 321°
2026-05-01 13:39 48.95100 17.57953 36340 ft 435 kts 321°
2026-05-01 13:40 48.99400 17.51389 36334 ft 434 kts 321°
2026-05-01 13:40 49.03627 17.44904 36336 ft 434 kts 321°
2026-05-01 13:41 49.07914 17.38320 36333 ft 434 kts 321°
2026-05-01 13:41 49.12169 17.31779 36332 ft 434 kts 321°
2026-05-01 13:42 49.16412 17.25233 36323 ft 434 kts 321°
2026-05-01 13:42 49.20659 17.18665 36325 ft 434 kts 321°
2026-05-01 13:43 49.24897 17.12089 36323 ft 434 kts 320°
2026-05-01 13:43 49.29142 17.05495 36325 ft 434 kts 320°
2026-05-01 13:44 49.33375 16.98894 36331 ft 434 kts 320°
2026-05-01 13:44 49.37604 16.92285 36324 ft 434 kts 320°
2026-05-01 13:45 49.41828 16.85665 36326 ft 434 kts 320°
2026-05-01 13:45 49.46048 16.79036 36330 ft 434 kts 320°
2026-05-01 13:46 49.50268 16.72382 36328 ft 434 kts 320°
2026-05-01 13:46 49.54486 16.65728 36327 ft 434 kts 320°
2026-05-01 13:47 49.58696 16.59072 36329 ft 434 kts 320°
2026-05-01 13:47 49.62903 16.52386 36334 ft 434 kts 319°
2026-05-01 13:48 49.67098 16.45695 36340 ft 434 kts 319°
2026-05-01 13:48 49.71297 16.38994 36344 ft 434 kts 319°
2026-05-01 13:49 49.75495 16.32284 36337 ft 434 kts 319°
2026-05-01 13:49 49.79687 16.25563 36343 ft 434 kts 319°
2026-05-01 13:50 49.83875 16.18821 36343 ft 434 kts 319°
2026-05-01 13:50 49.88060 16.12063 36343 ft 434 kts 319°
2026-05-01 13:51 49.92244 16.05299 36341 ft 434 kts 319°
2026-05-01 13:51 49.96426 15.98523 36340 ft 435 kts 319°
2026-05-01 13:52 50.00601 15.91735 36338 ft 435 kts 318°
2026-05-01 13:52 50.04779 15.84925 36338 ft 435 kts 318°
2026-05-01 13:53 50.08945 15.78104 36343 ft 435 kts 318°
2026-05-01 13:53 50.15196 15.67852 36345 ft 435 kts 318°
2026-05-01 13:54 50.19362 15.61002 36347 ft 435 kts 318°
2026-05-01 13:54 50.23526 15.54135 36347 ft 435 kts 318°
2026-05-01 13:55 50.27683 15.47258 36351 ft 435 kts 317°
2026-05-01 13:55 50.31832 15.40365 36353 ft 435 kts 317°
2026-05-01 13:56 50.35974 15.33451 36353 ft 435 kts 317°
2026-05-01 13:56 50.40113 15.26541 36351 ft 435 kts 317°
2026-05-01 13:57 50.43557 15.20796 36350 ft 435 kts 317°
2026-05-01 13:57 50.48395 15.12691 36349 ft 435 kts 317°
2026-05-01 13:58 50.52529 15.05737 36353 ft 435 kts 317°
2026-05-01 13:58 50.56662 14.98770 36356 ft 436 kts 316°
2026-05-01 13:59 50.60786 14.91781 36360 ft 436 kts 316°
2026-05-01 13:59 50.64914 14.84776 36363 ft 436 kts 316°
2026-05-01 14:00 50.69035 14.77776 36362 ft 436 kts 316°
2026-05-01 14:00 50.73151 14.70756 36367 ft 436 kts 316°
2026-05-01 14:01 50.76566 14.64901 36370 ft 436 kts 316°
2026-05-01 14:01 50.80673 14.57856 36369 ft 436 kts 316°
2026-05-01 14:02 50.84803 14.50756 36363 ft 436 kts 316°
2026-05-01 14:02 50.88903 14.43686 36369 ft 436 kts 316°
2026-05-01 14:03 50.93037 14.36667 36366 ft 434 kts 320°
2026-05-01 14:03 50.97552 14.30428 36367 ft 433 kts 322°
2026-05-01 14:04 51.02111 14.24165 36363 ft 433 kts 322°
2026-05-01 14:04 51.06700 14.17829 36365 ft 434 kts 322°
2026-05-01 14:05 51.11227 14.11575 36373 ft 434 kts 322°
2026-05-01 14:05 51.15808 14.05217 36372 ft 435 kts 321°
2026-05-01 14:06 51.20373 13.98878 36371 ft 435 kts 321°
2026-05-01 14:06 51.24944 13.92519 36372 ft 436 kts 321°
2026-05-01 14:07 51.29508 13.86143 36372 ft 436 kts 321°
2026-05-01 14:08 51.36355 13.76537 36381 ft 437 kts 321°
2026-05-01 14:08 51.40917 13.70110 36383 ft 437 kts 321°
2026-05-01 14:09 51.45469 13.63679 36382 ft 437 kts 321°
2026-05-01 14:09 51.50022 13.57229 36379 ft 437 kts 321°
2026-05-01 14:10 51.54576 13.50772 36377 ft 437 kts 321°
2026-05-01 14:10 51.59129 13.44298 36365 ft 437 kts 321°
2026-05-01 14:11 51.63681 13.37817 36369 ft 437 kts 321°
2026-05-01 14:11 51.70509 13.28059 36368 ft 438 kts 320°
2026-05-01 14:12 51.75052 13.21533 36368 ft 438 kts 320°
2026-05-01 14:12 51.79597 13.14973 36370 ft 439 kts 320°
2026-05-01 14:13 51.83380 13.09504 36371 ft 439 kts 320°
2026-05-01 14:13 51.88691 13.01800 36371 ft 439 kts 320°
2026-05-01 14:14 51.93236 12.95193 36371 ft 439 kts 320°
2026-05-01 14:14 51.97787 12.88564 36372 ft 439 kts 320°
2026-05-01 14:15 52.02330 12.81921 36375 ft 440 kts 320°
2026-05-01 14:15 52.06870 12.75265 36371 ft 440 kts 319°
2026-05-01 14:16 52.11412 12.68584 36376 ft 440 kts 319°
2026-05-01 14:16 52.15957 12.61900 36375 ft 440 kts 319°
2026-05-01 14:17 52.20494 12.55196 36371 ft 440 kts 319°
2026-05-01 14:17 52.25033 12.48464 36378 ft 441 kts 319°
2026-05-01 14:18 52.29425 12.41463 36368 ft 442 kts 315°
2026-05-01 14:18 52.32890 12.35337 36368 ft 442 kts 314°
2026-05-01 14:19 52.38131 12.27323 36372 ft 441 kts 319°
2026-05-01 14:19 52.42744 12.20685 36365 ft 441 kts 320°
2026-05-01 14:20 52.49664 12.10786 36376 ft 442 kts 320°
2026-05-01 14:21 52.54269 12.04120 36374 ft 442 kts 319°
2026-05-01 14:21 52.58875 11.97394 36380 ft 442 kts 319°
2026-05-01 14:22 52.63478 11.90665 36138 ft 444 kts 320°
2026-05-01 14:22 52.65838 11.87398 35730 ft 443 kts 322°
2026-05-01 14:22 52.68271 11.84257 35331 ft 444 kts 323°
2026-05-01 14:22 52.70747 11.81195 34933 ft 445 kts 324°
2026-05-01 14:23 52.73242 11.78154 34535 ft 447 kts 324°
2026-05-01 14:23 52.75741 11.75094 34135 ft 448 kts 324°
2026-05-01 14:23 52.78240 11.71988 33690 ft 450 kts 323°
2026-05-01 14:23 52.80730 11.68848 33235 ft 451 kts 323°
2026-05-01 14:24 52.83219 11.65675 32703 ft 452 kts 323°
2026-05-01 14:24 52.85706 11.62483 32121 ft 453 kts 323°
2026-05-01 14:24 52.88199 11.59273 31560 ft 454 kts 323°
2026-05-01 14:24 52.90693 11.56055 31007 ft 456 kts 323°
2026-05-01 14:25 52.93202 11.52822 30471 ft 457 kts 323°
2026-05-01 14:25 52.95717 11.49587 29803 ft 457 kts 323°
2026-05-01 14:25 52.98219 11.46374 29129 ft 453 kts 323°
2026-05-01 14:25 53.00700 11.43184 28472 ft 450 kts 323°
2026-05-01 14:26 53.03163 11.40013 27820 ft 446 kts 323°
2026-05-01 14:26 53.08034 11.33738 26586 ft 439 kts 323°
2026-05-01 14:26 53.10441 11.30642 25982 ft 436 kts 323°
2026-05-01 14:27 53.12838 11.27583 25387 ft 432 kts 324°
2026-05-01 14:27 53.15263 11.24656 24813 ft 429 kts 325°
2026-05-01 14:27 53.17716 11.21838 24227 ft 426 kts 326°
2026-05-01 14:28 53.22607 11.16361 22911 ft 421 kts 327°
2026-05-01 14:28 53.25024 11.13633 22230 ft 419 kts 326°
2026-05-01 14:28 53.27421 11.10888 21595 ft 416 kts 326°
2026-05-01 14:28 53.29790 11.08144 20955 ft 414 kts 326°
2026-05-01 14:29 53.32145 11.05396 20331 ft 412 kts 326°
2026-05-01 14:29 53.34490 11.02653 19718 ft 410 kts 326°
2026-05-01 14:30 53.41463 10.94495 17846 ft 405 kts 325°
2026-05-01 14:30 53.43766 10.91795 17188 ft 403 kts 325°
2026-05-01 14:30 53.46060 10.89102 16551 ft 402 kts 325°
2026-05-01 14:31 53.50640 10.83727 15299 ft 401 kts 324°
2026-05-01 14:31 53.52922 10.81043 14675 ft 401 kts 324°
2026-05-01 14:31 53.55206 10.78354 14048 ft 401 kts 324°
2026-05-01 14:31 53.57488 10.75662 13362 ft 400 kts 324°
2026-05-01 14:32 53.59794 10.72935 12686 ft 399 kts 324°
2026-05-01 14:32 53.61296 10.71155 12250 ft 398 kts 324°
2026-05-01 14:32 53.64281 10.67516 11515 ft 392 kts 319°
2026-05-01 14:32 53.66228 10.64440 11333 ft 376 kts 315°
2026-05-01 14:33 53.68076 10.61472 11356 ft 357 kts 315°
2026-05-01 14:33 53.69808 10.58697 11355 ft 340 kts 315°
2026-05-01 14:33 53.71506 10.55977 11355 ft 325 kts 315°
2026-05-01 14:33 53.73085 10.53437 11355 ft 313 kts 315°
2026-05-01 14:34 53.74783 10.51090 11355 ft 312 kts 330°
2026-05-01 14:34 53.76834 10.50010 11353 ft 311 kts 356°
2026-05-01 14:34 53.79002 10.50044 11355 ft 312 kts
2026-05-01 14:34 53.81171 10.50267 11352 ft 312 kts
2026-05-01 14:35 53.83339 10.50511 11357 ft 312 kts
2026-05-01 14:35 53.85504 10.50759 11356 ft 312 kts
2026-05-01 14:35 53.87670 10.51011 11350 ft 312 kts
2026-05-01 14:35 53.89838 10.51266 11357 ft 312 kts
2026-05-01 14:36 53.92006 10.51525 11281 ft 314 kts
2026-05-01 14:36 53.94182 10.51790 10936 ft 313 kts
2026-05-01 14:36 53.96348 10.52054 10606 ft 312 kts
2026-05-01 14:36 53.98506 10.52302 10363 ft 308 kts
2026-05-01 14:37 54.00589 10.51672 10355 ft 306 kts 335°
2026-05-01 14:37 54.02315 10.49625 10354 ft 302 kts 309°
2026-05-01 14:37 54.03343 10.46579 10357 ft 297 kts 283°
2026-05-01 14:37 54.03544 10.44308 10356 ft 292 kts 265°
2026-05-01 14:38 54.03139 10.39780 10349 ft 290 kts 255°
2026-05-01 14:38 54.02862 10.37557 10353 ft 290 kts 255°
2026-05-01 14:38 54.02437 10.34216 10345 ft 286 kts 255°
2026-05-01 14:38 54.02019 10.30939 10053 ft 282 kts 255°
2026-05-01 14:39 54.01608 10.27711 9747 ft 274 kts 254°
2026-05-01 14:39 54.01216 10.24616 9435 ft 264 kts 255°
2026-05-01 14:39 54.00837 10.21615 9125 ft 253 kts 255°
2026-05-01 14:39 54.00473 10.18724 8813 ft 249 kts 254°
2026-05-01 14:40 54.00110 10.15851 8545 ft 247 kts 254°
2026-05-01 14:40 53.99754 10.13027 8309 ft 243 kts 255°
2026-05-01 14:40 53.99402 10.10250 8094 ft 238 kts 254°
2026-05-01 14:40 53.99055 10.07522 7897 ft 235 kts 255°
2026-05-01 14:41 53.98711 10.04821 7661 ft 233 kts 255°
2026-05-01 14:41 53.98367 10.02134 7352 ft 233 kts 254°
2026-05-01 14:41 53.98020 9.99448 7042 ft 232 kts 254°
2026-05-01 14:41 53.97668 9.96760 6727 ft 234 kts 254°
2026-05-01 14:42 53.97312 9.94063 6373 ft 234 kts 254°
2026-05-01 14:42 53.96962 9.91389 5997 ft 232 kts 254°
2026-05-01 14:42 53.96607 9.88718 5613 ft 229 kts 251°
2026-05-01 14:42 53.95854 9.86459 5265 ft 217 kts 218°
2026-05-01 14:43 53.94546 9.85367 4950 ft 210 kts 190°
2026-05-01 14:43 53.93096 9.85002 4654 ft 211 kts 185°
2026-05-01 14:43 53.91635 9.84746 4381 ft 211 kts 184°
2026-05-01 14:43 53.90168 9.84506 4110 ft 212 kts 184°
2026-05-01 14:44 53.88695 9.84266 3861 ft 212 kts 184°
2026-05-01 14:44 53.85772 9.83782 3378 ft 209 kts 184°
2026-05-01 14:44 53.84323 9.83538 3176 ft 205 kts 184°
2026-05-01 14:45 53.82931 9.83307 3047 ft 202 kts 184°
2026-05-01 14:45 53.80463 9.84457 3010 ft 176 kts 152°
2026-05-01 14:45 53.79403 9.85384 2996 ft 173 kts 153°
2026-05-01 14:46 53.78314 9.86336 2855 ft 175 kts 152°
2026-05-01 14:46 53.76080 9.88282 2415 ft 187 kts 152°
2026-05-01 14:46 53.74970 9.89248 2211 ft 174 kts 152°
2026-05-01 14:47 53.73921 9.90160 1977 ft 168 kts 152°
2026-05-01 14:47 53.72909 9.91040 1737 ft 165 kts 152°
2026-05-01 14:47 53.71887 9.91928 1522 ft 163 kts 153°
2026-05-01 14:48 53.70026 9.93544 1122 ft 139 kts 152°
2026-05-01 14:48 53.69182 9.94276 903 ft 134 kts 152°
2026-05-01 14:48 53.67522 9.95723 603 ft 133 kts 151°
2026-05-01 14:49 53.65882 9.97133 212 ft 132 kts 152°
2026-05-01 14:49 53.64412 9.98411 49 ft 84 kts 153°
2026-05-01 14:50 53.63893 9.98858 50 ft 37 kts 152°
2026-05-01 14:50 53.63337 9.99348 47 ft 27 kts 142°
2026-05-01 14:51 53.63287 9.99550 47 ft 17 kts 98°
2026-05-01 14:51 53.63359 9.99925 48 ft 19 kts 51°
2026-05-01 14:52 53.63381 10.00219 48 ft 12 kts 152°
2026-05-01 14:52 53.63325 10.00255 48 ft 7 kts 116°
2026-05-01 14:52 53.63330 10.00340 47 ft 2 kts 83°
2026-05-01 14:53 53.63331 10.00353 48 ft 0 kts 86°
2026-05-01 14:53 53.63331 10.00354 48 ft 0 kts 86°